Year,Month,Day,Hour,Minute,Value (Times are PST for windgust in km/hr)
2014,10,28,00,00,27.40
2014,10,28,00,01,29.00
2014,10,28,00,02,38.60
2014,10,28,00,03,37.00
2014,10,28,00,04,40.20
2014,10,28,00,05,29.00
2014,10,28,00,06,33.80
2014,10,28,00,07,30.60
2014,10,28,00,08,27.40
2014,10,28,00,09,33.80
2014,10,28,00,10,35.40
2014,10,28,00,11,27.40
2014,10,28,00,12,27.40
2014,10,28,00,13,29.00
2014,10,28,00,14,32.20
2014,10,28,00,15,25.70
2014,10,28,00,16,32.20
2014,10,28,00,17,24.20
2014,10,28,00,18,30.60
2014,10,28,00,19,33.80
2014,10,28,00,20,27.40
2014,10,28,00,21,29.00
2014,10,28,00,22,37.00
2014,10,28,00,23,29.00
2014,10,28,00,24,29.00
2014,10,28,00,25,25.70
2014,10,28,00,26,32.20
2014,10,28,00,27,29.00
2014,10,28,00,28,32.20
2014,10,28,00,29,33.80
2014,10,28,00,30,38.60
2014,10,28,00,31,38.60
2014,10,28,00,32,32.20
2014,10,28,00,33,27.40
2014,10,28,00,34,40.20
2014,10,28,00,35,27.40
2014,10,28,00,36,22.50
2014,10,28,00,37,32.20
2014,10,28,00,38,35.40
2014,10,28,00,39,30.60
2014,10,28,00,40,30.60
2014,10,28,00,41,32.20
2014,10,28,00,42,24.20
2014,10,28,00,43,32.20
2014,10,28,00,44,30.60
2014,10,28,00,45,37.00
2014,10,28,00,46,20.90
2014,10,28,00,47,38.60
2014,10,28,00,48,25.70
2014,10,28,00,49,46.70
2014,10,28,00,50,24.20
2014,10,28,00,51,22.50
2014,10,28,00,52,29.00
2014,10,28,00,53,24.20
2014,10,28,00,54,19.30
2014,10,28,00,55,33.80
2014,10,28,00,56,22.50
2014,10,28,00,57,24.20
2014,10,28,00,58,29.00
2014,10,28,00,59,25.70
2014,10,28,01,00,27.40
2014,10,28,01,01,29.00
2014,10,28,01,02,33.80
2014,10,28,01,03,24.20
2014,10,28,01,04,24.20
2014,10,28,01,05,30.60
2014,10,28,01,06,20.90
2014,10,28,01,07,25.70
2014,10,28,01,08,25.70
2014,10,28,01,09,40.20
2014,10,28,01,10,30.60
2014,10,28,01,11,27.40
2014,10,28,01,12,27.40
2014,10,28,01,13,27.40
2014,10,28,01,14,27.40
2014,10,28,01,15,29.00
2014,10,28,01,16,25.70
2014,10,28,01,17,22.50
2014,10,28,01,18,30.60
2014,10,28,01,19,32.20
2014,10,28,01,20,32.20
2014,10,28,01,21,22.50
2014,10,28,01,22,29.00
2014,10,28,01,23,29.00
2014,10,28,01,24,30.60
2014,10,28,01,25,33.80
2014,10,28,01,26,27.40
2014,10,28,01,27,32.20
2014,10,28,01,28,30.60
2014,10,28,01,29,32.20
2014,10,28,01,30,22.50
2014,10,28,01,31,20.90
2014,10,28,01,32,27.40
2014,10,28,01,33,29.00
2014,10,28,01,34,27.40
2014,10,28,01,35,30.60
2014,10,28,01,36,32.20
2014,10,28,01,37,20.90
2014,10,28,01,38,25.70
2014,10,28,01,39,27.40
2014,10,28,01,40,24.20
2014,10,28,01,41,29.00
2014,10,28,01,42,32.20
2014,10,28,01,43,25.70
2014,10,28,01,44,25.70
2014,10,28,01,45,29.00
2014,10,28,01,46,33.80
2014,10,28,01,47,27.40
2014,10,28,01,48,32.20
2014,10,28,01,49,32.20
2014,10,28,01,50,35.40
2014,10,28,01,51,35.40
2014,10,28,01,52,32.20
2014,10,28,01,53,32.20
2014,10,28,01,54,35.40
2014,10,28,01,55,38.60
2014,10,28,01,56,27.40
2014,10,28,01,57,41.80
2014,10,28,01,58,29.00
2014,10,28,01,59,38.60
2014,10,28,02,00,33.80
2014,10,28,02,01,30.60
2014,10,28,02,02,30.60
2014,10,28,02,03,35.40
2014,10,28,02,04,29.00
2014,10,28,02,05,35.40
2014,10,28,02,06,29.00
2014,10,28,02,07,29.00
2014,10,28,02,08,25.70
2014,10,28,02,09,27.40
2014,10,28,02,10,33.80
2014,10,28,02,11,33.80
2014,10,28,02,12,35.40
2014,10,28,02,13,37.00
2014,10,28,02,14,29.00
2014,10,28,02,15,30.60
2014,10,28,02,16,32.20
2014,10,28,02,17,48.30
2014,10,28,02,18,30.60
2014,10,28,02,19,38.60
2014,10,28,02,20,35.40
2014,10,28,02,21,43.50
2014,10,28,02,22,30.60
2014,10,28,02,23,49.90
2014,10,28,02,24,40.20
2014,10,28,02,25,33.80
2014,10,28,02,26,45.10
2014,10,28,02,27,30.60
2014,10,28,02,28,25.70
2014,10,28,02,29,57.90
2014,10,28,02,30,38.60
2014,10,28,02,31,40.20
2014,10,28,02,32,46.70
2014,10,28,02,33,38.60
2014,10,28,02,34,29.00
2014,10,28,02,35,17.70
2014,10,28,02,36,38.60
2014,10,28,02,37,20.90
2014,10,28,02,38,20.90
2014,10,28,02,39,27.40
2014,10,28,02,40,30.60
2014,10,28,02,41,30.60
2014,10,28,02,42,25.70
2014,10,28,02,43,30.60
2014,10,28,02,44,24.20
2014,10,28,02,45,25.70
2014,10,28,02,46,29.00
2014,10,28,02,47,24.20
2014,10,28,02,48,30.60
2014,10,28,02,49,27.40
2014,10,28,02,50,30.60
2014,10,28,02,51,32.20
2014,10,28,02,52,24.20
2014,10,28,02,53,32.20
2014,10,28,02,54,29.00
2014,10,28,02,55,29.00
2014,10,28,02,56,37.00
2014,10,28,02,57,41.80
2014,10,28,02,58,38.60
2014,10,28,02,59,32.20
2014,10,28,03,00,30.60
2014,10,28,03,01,41.80
2014,10,28,03,02,32.20
2014,10,28,03,03,30.60
2014,10,28,03,04,35.40
2014,10,28,03,05,27.40
2014,10,28,03,06,27.40
2014,10,28,03,07,48.30
2014,10,28,03,08,24.20
2014,10,28,03,09,33.80
2014,10,28,03,10,32.20
2014,10,28,03,11,33.80
2014,10,28,03,12,30.60
2014,10,28,03,13,30.60
2014,10,28,03,14,32.20
2014,10,28,03,15,29.00
2014,10,28,03,16,29.00
2014,10,28,03,17,35.40
2014,10,28,03,18,37.00
2014,10,28,03,19,33.80
2014,10,28,03,20,25.70
2014,10,28,03,21,30.60
2014,10,28,03,22,33.80
2014,10,28,03,23,25.70
2014,10,28,03,24,27.40
2014,10,28,03,25,43.50
2014,10,28,03,26,35.40
2014,10,28,03,27,33.80
2014,10,28,03,28,29.00
2014,10,28,03,29,33.80
2014,10,28,03,30,35.40
2014,10,28,03,31,33.80
2014,10,28,03,32,45.10
2014,10,28,03,33,41.80
2014,10,28,03,34,38.60
2014,10,28,03,35,30.60
2014,10,28,03,36,27.40
2014,10,28,03,37,32.20
2014,10,28,03,38,30.60
2014,10,28,03,39,37.00
2014,10,28,03,40,25.70
2014,10,28,03,41,35.40
2014,10,28,03,42,37.00
2014,10,28,03,43,46.70
2014,10,28,03,44,49.90
2014,10,28,03,45,49.90
2014,10,28,03,46,25.70
2014,10,28,03,47,37.00
2014,10,28,03,48,48.30
2014,10,28,03,49,32.20
2014,10,28,03,50,33.80
2014,10,28,03,51,41.80
2014,10,28,03,52,37.00
2014,10,28,03,53,33.80
2014,10,28,03,54,38.60
2014,10,28,03,55,43.50
2014,10,28,03,56,40.20
2014,10,28,03,57,33.80
2014,10,28,03,58,30.60
2014,10,28,03,59,40.20
2014,10,28,04,00,32.20
2014,10,28,04,01,30.60
2014,10,28,04,02,45.10
2014,10,28,04,03,43.50
2014,10,28,04,04,32.20
2014,10,28,04,05,40.20
2014,10,28,04,06,40.20
2014,10,28,04,07,30.60
2014,10,28,04,08,33.80
2014,10,28,04,09,40.20
2014,10,28,04,10,25.70
2014,10,28,04,11,49.90
2014,10,28,04,12,41.80
2014,10,28,04,13,41.80
2014,10,28,04,14,56.30
2014,10,28,04,15,41.80
2014,10,28,04,16,40.20
2014,10,28,04,17,40.20
2014,10,28,04,18,45.10
2014,10,28,04,19,33.80
2014,10,28,04,20,37.00
2014,10,28,04,21,37.00
2014,10,28,04,22,38.60
2014,10,28,04,23,38.60
2014,10,28,04,24,27.40
2014,10,28,04,25,24.20
2014,10,28,04,26,41.80
2014,10,28,04,27,30.60
2014,10,28,04,28,51.50
2014,10,28,04,29,29.00
2014,10,28,04,30,20.90
2014,10,28,04,31,37.00
2014,10,28,04,32,25.70
2014,10,28,04,33,29.00
2014,10,28,04,34,27.40
2014,10,28,04,35,19.30
2014,10,28,04,36,24.20
2014,10,28,04,37,43.50
2014,10,28,04,38,37.00
2014,10,28,04,39,38.60
2014,10,28,04,40,35.40
2014,10,28,04,41,19.30
2014,10,28,04,42,29.00
2014,10,28,04,43,40.20
2014,10,28,04,44,37.00
2014,10,28,04,45,35.40
2014,10,28,04,46,27.40
2014,10,28,04,47,27.40
2014,10,28,04,48,30.60
2014,10,28,04,49,33.80
2014,10,28,04,50,29.00
2014,10,28,04,51,46.70
2014,10,28,04,52,33.80
2014,10,28,04,53,27.40
2014,10,28,04,54,30.60
2014,10,28,04,55,29.00
2014,10,28,04,56,30.60
2014,10,28,04,57,35.40
2014,10,28,04,58,30.60
2014,10,28,04,59,41.80
2014,10,28,05,00,38.60
2014,10,28,05,01,35.40
2014,10,28,05,02,30.60
2014,10,28,05,03,27.40
2014,10,28,05,04,32.20
2014,10,28,05,05,27.40
2014,10,28,05,06,38.60
2014,10,28,05,07,25.70
2014,10,28,05,08,27.40
2014,10,28,05,09,32.20
2014,10,28,05,10,37.00
2014,10,28,05,11,25.70
2014,10,28,05,12,27.40
2014,10,28,05,13,30.60
2014,10,28,05,14,33.80
2014,10,28,05,15,27.40
2014,10,28,05,16,29.00
2014,10,28,05,17,25.70
2014,10,28,05,18,30.60
2014,10,28,05,19,32.20
2014,10,28,05,20,29.00
2014,10,28,05,21,35.40
2014,10,28,05,22,25.70
2014,10,28,05,23,32.20
2014,10,28,05,24,24.20
2014,10,28,05,25,35.40
2014,10,28,05,26,24.20
2014,10,28,05,27,37.00
2014,10,28,05,28,38.60
2014,10,28,05,29,29.00
2014,10,28,05,30,27.40
2014,10,28,05,31,25.70
2014,10,28,05,32,29.00
2014,10,28,05,33,35.40
2014,10,28,05,34,24.20
2014,10,28,05,35,38.60
2014,10,28,05,36,29.00
2014,10,28,05,37,37.00
2014,10,28,05,38,22.50
2014,10,28,05,39,29.00
2014,10,28,05,40,25.70
2014,10,28,05,41,29.00
2014,10,28,05,42,25.70
2014,10,28,05,43,25.70
2014,10,28,05,44,24.20
2014,10,28,05,45,37.00
2014,10,28,05,46,25.70
2014,10,28,05,47,29.00
2014,10,28,05,48,25.70
2014,10,28,05,49,24.20
2014,10,28,05,50,19.30
2014,10,28,05,51,29.00
2014,10,28,05,52,29.00
2014,10,28,05,53,24.20
2014,10,28,05,54,22.50
2014,10,28,05,55,24.20
2014,10,28,05,56,32.20
2014,10,28,05,57,35.40
2014,10,28,05,58,32.20
2014,10,28,05,59,27.40
2014,10,28,06,00,16.10
2014,10,28,06,01,33.80
2014,10,28,06,02,29.00
2014,10,28,06,03,37.00
2014,10,28,06,04,27.40
2014,10,28,06,05,32.20
2014,10,28,06,06,24.20
2014,10,28,06,07,33.80
2014,10,28,06,08,20.90
2014,10,28,06,09,19.30
2014,10,28,06,10,35.40
2014,10,28,06,11,41.80
2014,10,28,06,12,33.80
2014,10,28,06,13,32.20
2014,10,28,06,14,30.60
2014,10,28,06,15,38.60
2014,10,28,06,16,29.00
2014,10,28,06,17,35.40
2014,10,28,06,18,33.80
2014,10,28,06,19,30.60
2014,10,28,06,20,29.00
2014,10,28,06,21,33.80
2014,10,28,06,22,40.20
2014,10,28,06,23,33.80
2014,10,28,06,24,30.60
2014,10,28,06,25,29.00
2014,10,28,06,26,24.20
2014,10,28,06,27,30.60
2014,10,28,06,28,30.60
2014,10,28,06,29,30.60
2014,10,28,06,30,29.00
2014,10,28,06,31,29.00
2014,10,28,06,32,30.60
2014,10,28,06,33,37.00
2014,10,28,06,34,37.00
2014,10,28,06,35,25.70
2014,10,28,06,36,20.90
2014,10,28,06,37,32.20
2014,10,28,06,38,33.80
2014,10,28,06,39,32.20
2014,10,28,06,40,38.60
2014,10,28,06,41,35.40
2014,10,28,06,42,30.60
2014,10,28,06,43,24.20
2014,10,28,06,44,29.00
2014,10,28,06,45,40.20
2014,10,28,06,46,32.20
2014,10,28,06,47,25.70
2014,10,28,06,48,25.70
2014,10,28,06,49,30.60
2014,10,28,06,50,25.70
2014,10,28,06,51,30.60
2014,10,28,06,52,24.20
2014,10,28,06,53,24.20
2014,10,28,06,54,41.80
2014,10,28,06,55,30.60
2014,10,28,06,56,40.20
2014,10,28,06,57,17.70
2014,10,28,06,58,27.40
2014,10,28,06,59,25.70
2014,10,28,07,00,38.60
2014,10,28,07,01,33.80
2014,10,28,07,02,29.00
2014,10,28,07,03,30.60
2014,10,28,07,04,35.40
2014,10,28,07,05,32.20
2014,10,28,07,06,24.20
2014,10,28,07,07,20.90
2014,10,28,07,08,27.40
2014,10,28,07,09,25.70
2014,10,28,07,10,35.40
2014,10,28,07,11,32.20
2014,10,28,07,12,32.20
2014,10,28,07,13,30.60
2014,10,28,07,14,35.40
2014,10,28,07,15,29.00
2014,10,28,07,16,32.20
2014,10,28,07,17,37.00
2014,10,28,07,18,40.20
2014,10,28,07,19,37.00
2014,10,28,07,20,40.20
2014,10,28,07,21,27.40
2014,10,28,07,22,37.00
2014,10,28,07,23,24.20
2014,10,28,07,24,22.50
2014,10,28,07,25,20.90
2014,10,28,07,26,35.40
2014,10,28,07,27,35.40
2014,10,28,07,28,25.70
2014,10,28,07,29,32.20
2014,10,28,07,30,40.20
2014,10,28,07,31,27.40
2014,10,28,07,32,30.60
2014,10,28,07,33,29.00
2014,10,28,07,34,17.70
2014,10,28,07,35,17.70
2014,10,28,07,36,17.70
2014,10,28,07,37,29.00
2014,10,28,07,38,35.40
2014,10,28,07,39,32.20
2014,10,28,07,40,25.70
2014,10,28,07,41,32.20
2014,10,28,07,42,29.00
2014,10,28,07,43,38.60
2014,10,28,07,44,24.20
2014,10,28,07,45,22.50
2014,10,28,07,46,25.70
2014,10,28,07,47,24.20
2014,10,28,07,48,32.20
2014,10,28,07,49,29.00
2014,10,28,07,50,27.40
2014,10,28,07,51,27.40
2014,10,28,07,52,45.10
2014,10,28,07,53,24.20
2014,10,28,07,54,29.00
2014,10,28,07,55,35.40
2014,10,28,07,56,45.10
2014,10,28,07,57,30.60
2014,10,28,07,58,35.40
2014,10,28,07,59,30.60
2014,10,28,08,00,38.60
2014,10,28,08,01,37.00
2014,10,28,08,02,27.40
2014,10,28,08,03,29.00
2014,10,28,08,04,29.00
2014,10,28,08,05,27.40
2014,10,28,08,06,32.20
2014,10,28,08,07,27.40
2014,10,28,08,08,35.40
2014,10,28,08,09,54.70
2014,10,28,08,10,40.20
2014,10,28,08,11,32.20
2014,10,28,08,12,51.50
2014,10,28,08,13,38.60
2014,10,28,08,14,32.20
2014,10,28,08,15,40.20
2014,10,28,08,16,37.00
2014,10,28,08,17,45.10
2014,10,28,08,18,45.10
2014,10,28,08,19,30.60
2014,10,28,08,20,37.00
2014,10,28,08,21,45.10
2014,10,28,08,22,29.00
2014,10,28,08,23,32.20
2014,10,28,08,24,38.60
2014,10,28,08,25,41.80
2014,10,28,08,26,35.40
2014,10,28,08,27,33.80
2014,10,28,08,28,45.10
2014,10,28,08,29,37.00
2014,10,28,08,30,41.80
2014,10,28,08,31,32.20
2014,10,28,08,32,38.60
2014,10,28,08,33,48.30
2014,10,28,08,34,35.40
2014,10,28,08,35,37.00
2014,10,28,08,36,29.00
2014,10,28,08,37,43.50
2014,10,28,08,38,32.20
2014,10,28,08,39,49.90
2014,10,28,08,40,38.60
2014,10,28,08,41,32.20
2014,10,28,08,42,27.40
2014,10,28,08,43,22.50
2014,10,28,08,44,41.80
2014,10,28,08,45,41.80
2014,10,28,08,46,40.20
2014,10,28,08,47,41.80
2014,10,28,08,48,43.50
2014,10,28,08,49,41.80
2014,10,28,08,50,45.10
2014,10,28,08,51,43.50
2014,10,28,08,52,37.00
2014,10,28,08,53,24.20
2014,10,28,08,54,35.40
2014,10,28,08,55,46.70
2014,10,28,08,56,29.00
2014,10,28,08,57,33.80
2014,10,28,08,58,37.00
2014,10,28,08,59,45.10
2014,10,28,09,00,33.80
2014,10,28,09,01,43.50
2014,10,28,09,02,35.40
2014,10,28,09,03,40.20
2014,10,28,09,04,59.50
2014,10,28,09,05,37.00
2014,10,28,09,06,38.60
2014,10,28,09,07,33.80
2014,10,28,09,08,33.80
2014,10,28,09,09,32.20
2014,10,28,09,10,38.60
2014,10,28,09,11,43.50
2014,10,28,09,12,29.00
2014,10,28,09,13,43.50
2014,10,28,09,14,41.80
2014,10,28,09,15,48.30
2014,10,28,09,16,48.30
2014,10,28,09,17,46.70
2014,10,28,09,18,30.60
2014,10,28,09,19,32.20
2014,10,28,09,20,32.20
2014,10,28,09,21,41.80
2014,10,28,09,22,40.20
2014,10,28,09,23,41.80
2014,10,28,09,24,29.00
2014,10,28,09,25,40.20
2014,10,28,09,26,51.50
2014,10,28,09,27,37.00
2014,10,28,09,28,45.10
2014,10,28,09,29,32.20
2014,10,28,09,30,29.00
2014,10,28,09,31,45.10
2014,10,28,09,32,30.60
2014,10,28,09,33,40.20
2014,10,28,09,34,27.40
2014,10,28,09,35,20.90
2014,10,28,09,36,37.00
2014,10,28,09,37,33.80
2014,10,28,09,38,35.40
2014,10,28,09,39,38.60
2014,10,28,09,40,22.50
2014,10,28,09,41,22.50
2014,10,28,09,42,30.60
2014,10,28,09,43,33.80
2014,10,28,09,44,33.80
2014,10,28,09,45,24.20
2014,10,28,09,46,25.70
2014,10,28,09,47,38.60
2014,10,28,09,48,30.60
2014,10,28,09,49,33.80
2014,10,28,09,50,33.80
2014,10,28,09,51,27.40
2014,10,28,09,52,24.20
2014,10,28,09,53,25.70
2014,10,28,09,54,30.60
2014,10,28,09,55,27.40
2014,10,28,09,56,35.40
2014,10,28,09,57,35.40
2014,10,28,09,58,40.20
2014,10,28,09,59,25.70
2014,10,28,10,00,27.40
2014,10,28,10,01,30.60
2014,10,28,10,02,22.50
2014,10,28,10,03,25.70
2014,10,28,10,04,24.20
2014,10,28,10,05,33.80
2014,10,28,10,06,30.60
2014,10,28,10,07,32.20
2014,10,28,10,08,27.40
2014,10,28,10,09,35.40
2014,10,28,10,10,19.30
2014,10,28,10,11,27.40
2014,10,28,10,12,20.90
2014,10,28,10,13,22.50
2014,10,28,10,14,24.20
2014,10,28,10,15,32.20
2014,10,28,10,16,22.50
2014,10,28,10,17,32.20
2014,10,28,10,18,40.20
2014,10,28,10,19,30.60
2014,10,28,10,20,35.40
2014,10,28,10,21,20.90
2014,10,28,10,22,22.50
2014,10,28,10,23,25.70
2014,10,28,10,24,38.60
2014,10,28,10,25,25.70
2014,10,28,10,26,30.60
2014,10,28,10,27,22.50
2014,10,28,10,28,33.80
2014,10,28,10,29,30.60
2014,10,28,10,30,33.80
2014,10,28,10,31,30.60
2014,10,28,10,32,29.00
2014,10,28,10,33,27.40
2014,10,28,10,34,24.20
2014,10,28,10,35,24.20
2014,10,28,10,36,20.90
2014,10,28,10,37,20.90
2014,10,28,10,38,32.20
2014,10,28,10,39,30.60
2014,10,28,10,40,32.20
2014,10,28,10,41,30.60
2014,10,28,10,42,30.60
2014,10,28,10,43,27.40
2014,10,28,10,44,25.70
2014,10,28,10,45,32.20
2014,10,28,10,46,32.20
2014,10,28,10,47,41.80
2014,10,28,10,48,30.60
2014,10,28,10,49,24.20
2014,10,28,10,50,25.70
2014,10,28,10,51,25.70
2014,10,28,10,52,32.20
2014,10,28,10,53,32.20
2014,10,28,10,54,27.40
2014,10,28,10,55,32.20
2014,10,28,10,56,25.70
2014,10,28,10,57,22.50
2014,10,28,10,58,32.20
2014,10,28,10,59,33.80
2014,10,28,11,00,27.40
2014,10,28,11,01,19.30
2014,10,28,11,02,27.40
2014,10,28,11,03,22.50
2014,10,28,11,04,22.50
2014,10,28,11,05,33.80
2014,10,28,11,06,32.20
2014,10,28,11,07,25.70
2014,10,28,11,08,29.00
2014,10,28,11,09,35.40
2014,10,28,11,10,22.50
2014,10,28,11,11,29.00
2014,10,28,11,12,20.90
2014,10,28,11,13,33.80
2014,10,28,11,14,32.20
2014,10,28,11,15,35.40
2014,10,28,11,16,33.80
2014,10,28,11,17,27.40
2014,10,28,11,18,40.20
2014,10,28,11,19,32.20
2014,10,28,11,20,29.00
2014,10,28,11,21,24.20
2014,10,28,11,22,30.60
2014,10,28,11,23,25.70
2014,10,28,11,24,20.90
2014,10,28,11,25,30.60
2014,10,28,11,26,30.60
2014,10,28,11,27,32.20
2014,10,28,11,28,32.20
2014,10,28,11,29,30.60
2014,10,28,11,30,37.00
2014,10,28,11,31,24.20
2014,10,28,11,32,22.50
2014,10,28,11,33,27.40
2014,10,28,11,34,24.20
2014,10,28,11,35,27.40
2014,10,28,11,36,24.20
2014,10,28,11,37,22.50
2014,10,28,11,38,22.50
2014,10,28,11,39,22.50
2014,10,28,11,40,41.80
2014,10,28,11,41,20.90
2014,10,28,11,42,33.80
2014,10,28,11,43,24.20
2014,10,28,11,44,24.20
2014,10,28,11,45,17.70
2014,10,28,11,46,27.40
2014,10,28,11,47,27.40
2014,10,28,11,48,22.50
2014,10,28,11,49,32.20
2014,10,28,11,50,25.70
2014,10,28,11,51,24.20
2014,10,28,11,52,29.00
2014,10,28,11,53,24.20
2014,10,28,11,54,29.00
2014,10,28,11,55,24.20
2014,10,28,11,56,22.50
2014,10,28,11,57,24.20
2014,10,28,11,58,19.30
2014,10,28,11,59,29.00
2014,10,28,12,00,24.20
2014,10,28,12,01,29.00
2014,10,28,12,02,20.90
2014,10,28,12,03,38.60
2014,10,28,12,04,17.70
2014,10,28,12,05,27.40
2014,10,28,12,06,16.10
2014,10,28,12,07,24.20
2014,10,28,12,08,24.20
2014,10,28,12,09,32.20
2014,10,28,12,10,22.50
2014,10,28,12,11,29.00
2014,10,28,12,12,32.20
2014,10,28,12,13,20.90
2014,10,28,12,14,35.40
2014,10,28,12,15,33.80
2014,10,28,12,16,29.00
2014,10,28,12,17,19.30
2014,10,28,12,18,45.10
2014,10,28,12,19,37.00
2014,10,28,12,20,30.60
2014,10,28,12,21,17.70
2014,10,28,12,22,37.00
2014,10,28,12,23,25.70
2014,10,28,12,24,29.00
2014,10,28,12,25,25.70
2014,10,28,12,26,29.00
2014,10,28,12,27,32.20
2014,10,28,12,28,32.20
2014,10,28,12,29,30.60
2014,10,28,12,30,20.90
2014,10,28,12,31,19.30
2014,10,28,12,32,27.40
2014,10,28,12,33,27.40
2014,10,28,12,34,32.20
2014,10,28,12,35,20.90
2014,10,28,12,36,25.70
2014,10,28,12,37,25.70
2014,10,28,12,38,20.90
2014,10,28,12,39,32.20
2014,10,28,12,40,33.80
2014,10,28,12,41,35.40
2014,10,28,12,42,27.40
2014,10,28,12,43,33.80
2014,10,28,12,44,27.40
2014,10,28,12,45,25.70
2014,10,28,12,46,22.50
2014,10,28,12,47,27.40
2014,10,28,12,48,25.70
2014,10,28,12,49,20.90
2014,10,28,12,50,30.60
2014,10,28,12,51,29.00
2014,10,28,12,52,25.70
2014,10,28,12,53,24.20
2014,10,28,12,54,30.60
2014,10,28,12,55,22.50
2014,10,28,12,56,32.20
2014,10,28,12,57,24.20
2014,10,28,12,58,27.40
2014,10,28,12,59,32.20
2014,10,28,13,00,24.20
2014,10,28,13,01,25.70
2014,10,28,13,02,27.40
2014,10,28,13,03,22.50
2014,10,28,13,04,22.50
2014,10,28,13,05,25.70
2014,10,28,13,06,32.20
2014,10,28,13,07,30.60
2014,10,28,13,08,25.70
2014,10,28,13,09,25.70
2014,10,28,13,10,35.40
2014,10,28,13,11,32.20
2014,10,28,13,12,29.00
2014,10,28,13,13,29.00
2014,10,28,13,14,30.60
2014,10,28,13,15,25.70
2014,10,28,13,16,27.40
2014,10,28,13,17,25.70
2014,10,28,13,18,25.70
2014,10,28,13,19,27.40
2014,10,28,13,20,25.70
2014,10,28,13,21,29.00
2014,10,28,13,22,24.20
2014,10,28,13,23,25.70
2014,10,28,13,24,24.20
2014,10,28,13,25,17.70
2014,10,28,13,26,19.30
2014,10,28,13,27,17.70
2014,10,28,13,28,24.20
2014,10,28,13,29,27.40
2014,10,28,13,30,27.40
2014,10,28,13,31,17.70
2014,10,28,13,32,27.40
2014,10,28,13,33,30.60
2014,10,28,13,34,19.30
2014,10,28,13,35,29.00
2014,10,28,13,36,19.30
2014,10,28,13,37,24.20
2014,10,28,13,38,20.90
2014,10,28,13,39,25.70
2014,10,28,13,40,20.90
2014,10,28,13,41,22.50
2014,10,28,13,42,22.50
2014,10,28,13,43,22.50
2014,10,28,13,44,25.70
2014,10,28,13,45,22.50
2014,10,28,13,46,20.90
2014,10,28,13,47,25.70
2014,10,28,13,48,20.90
2014,10,28,13,49,24.20
2014,10,28,13,50,19.30
2014,10,28,13,51,16.10
2014,10,28,13,52,25.70
2014,10,28,13,53,22.50
2014,10,28,13,54,25.70
2014,10,28,13,55,24.20
2014,10,28,13,56,25.70
2014,10,28,13,57,14.50
2014,10,28,13,58,25.70
2014,10,28,13,59,8.10
2014,10,28,14,00,22.50
2014,10,28,14,01,20.90
2014,10,28,14,02,22.50
2014,10,28,14,03,27.40
2014,10,28,14,04,16.10
2014,10,28,14,05,20.90
2014,10,28,14,06,19.30
2014,10,28,14,07,19.30
2014,10,28,14,08,20.90
2014,10,28,14,09,19.30
2014,10,28,14,10,20.90
2014,10,28,14,11,24.20
2014,10,28,14,12,25.70
2014,10,28,14,13,25.70
2014,10,28,14,14,16.10
2014,10,28,14,15,14.50
2014,10,28,14,16,12.90
2014,10,28,14,17,24.20
2014,10,28,14,18,17.70
2014,10,28,14,19,22.50
2014,10,28,14,20,20.90
2014,10,28,14,21,16.10
2014,10,28,14,22,14.50
2014,10,28,14,23,11.30
2014,10,28,14,24,14.50
2014,10,28,14,25,20.90
2014,10,28,14,26,20.90
2014,10,28,14,27,12.90
2014,10,28,14,28,12.90
2014,10,28,14,29,24.20
2014,10,28,14,30,19.30
2014,10,28,14,31,27.40
2014,10,28,14,32,20.90
2014,10,28,14,33,19.30
2014,10,28,14,34,17.70
2014,10,28,14,35,17.70
2014,10,28,14,36,11.30
2014,10,28,14,37,9.60
2014,10,28,14,38,8.10
2014,10,28,14,39,8.10
2014,10,28,14,40,9.60
2014,10,28,14,41,11.30
2014,10,28,14,42,9.60
2014,10,28,14,43,8.10
2014,10,28,14,44,9.60
2014,10,28,14,45,11.30
2014,10,28,14,46,17.70
2014,10,28,14,47,14.50
2014,10,28,14,48,9.60
2014,10,28,14,49,8.10
2014,10,28,14,50,8.10
2014,10,28,14,51,8.10
2014,10,28,14,52,6.40
2014,10,28,14,53,8.10
2014,10,28,14,54,14.50
2014,10,28,14,55,8.10
2014,10,28,14,56,11.30
2014,10,28,14,57,11.30
2014,10,28,14,58,8.10
2014,10,28,14,59,9.60
2014,10,28,15,00,8.10
2014,10,28,15,01,11.30
2014,10,28,15,02,9.60
2014,10,28,15,03,6.40
2014,10,28,15,04,9.60
2014,10,28,15,05,16.10
2014,10,28,15,06,11.30
2014,10,28,15,07,12.90
2014,10,28,15,08,14.50
2014,10,28,15,09,14.50
2014,10,28,15,10,14.50
2014,10,28,15,11,16.10
2014,10,28,15,12,9.60
2014,10,28,15,13,9.60
2014,10,28,15,14,11.30
2014,10,28,15,15,19.30
2014,10,28,15,16,16.10
2014,10,28,15,17,14.50
2014,10,28,15,18,17.70
2014,10,28,15,19,12.90
2014,10,28,15,20,19.30
2014,10,28,15,21,20.90
2014,10,28,15,22,16.10
2014,10,28,15,23,9.60
2014,10,28,15,24,17.70
2014,10,28,15,25,17.70
2014,10,28,15,26,16.10
2014,10,28,15,27,14.50
2014,10,28,15,28,12.90
2014,10,28,15,29,14.50
2014,10,28,15,30,11.30
2014,10,28,15,31,6.40
2014,10,28,15,32,8.10
2014,10,28,15,33,8.10
2014,10,28,15,34,11.30
2014,10,28,15,35,16.10
2014,10,28,15,36,16.10
2014,10,28,15,37,12.90
2014,10,28,15,38,14.50
2014,10,28,15,39,9.60
2014,10,28,15,40,11.30
2014,10,28,15,41,8.10
2014,10,28,15,42,3.20
2014,10,28,15,43,3.20
2014,10,28,15,44,6.40
2014,10,28,15,45,3.20
2014,10,28,15,46,6.40
2014,10,28,15,47,9.60
2014,10,28,15,48,6.40
2014,10,28,15,49,4.80
2014,10,28,15,51,6.40
2014,10,28,15,52,1.60
2014,10,28,15,53,4.80
2014,10,28,15,54,8.10
2014,10,28,15,55,3.20
2014,10,28,15,56,8.10
2014,10,28,15,57,8.10
2014,10,28,15,58,4.80
2014,10,28,16,01,8.10
2014,10,28,16,02,4.80
2014,10,28,16,03,3.20
2014,10,28,16,06,3.20
2014,10,28,16,07,8.10
2014,10,28,16,08,8.10
2014,10,28,16,19,3.20
2014,10,28,16,24,6.40
2014,10,28,16,25,3.20
2014,10,28,16,30,6.40
2014,10,28,16,31,8.10
2014,10,28,16,32,9.60
2014,10,28,16,33,6.40
2014,10,28,16,34,4.80
2014,10,28,16,35,6.40
2014,10,28,16,36,6.40
2014,10,28,16,37,3.20
2014,10,28,16,38,1.60
2014,10,28,16,39,3.20
2014,10,28,16,40,6.40
2014,10,28,16,41,4.80
2014,10,28,16,42,6.40
2014,10,28,16,43,8.10
2014,10,28,16,44,8.10
2014,10,28,16,45,3.20
2014,10,28,16,46,3.20
2014,10,28,16,47,4.80
2014,10,28,16,48,4.80
2014,10,28,16,49,6.40
2014,10,28,16,50,6.40
2014,10,28,16,51,6.40
2014,10,28,16,52,4.80
2014,10,28,16,53,4.80
2014,10,28,16,54,6.40
2014,10,28,16,55,6.40
2014,10,28,16,56,4.80
2014,10,28,16,57,4.80
2014,10,28,17,00,1.60
2014,10,28,17,02,6.40
2014,10,28,17,03,9.60
2014,10,28,17,04,8.10
2014,10,28,17,05,8.10
2014,10,28,17,06,9.60
2014,10,28,17,07,6.40
2014,10,28,17,08,8.10
2014,10,28,17,09,9.60
2014,10,28,17,10,6.40
2014,10,28,17,11,6.40
2014,10,28,17,12,6.40
2014,10,28,17,13,3.20
2014,10,28,17,15,4.80
2014,10,28,17,16,9.60
2014,10,28,17,17,8.10
2014,10,28,17,18,6.40
2014,10,28,17,19,9.60
2014,10,28,17,20,9.60
2014,10,28,17,21,8.10
2014,10,28,17,22,6.40
2014,10,28,17,23,17.70
2014,10,28,17,24,9.60
2014,10,28,17,25,8.10
2014,10,28,17,26,4.80
2014,10,28,17,27,11.30
2014,10,28,17,28,11.30
2014,10,28,17,29,11.30
2014,10,28,17,30,9.60
2014,10,28,17,31,11.30
2014,10,28,17,33,9.60
2014,10,28,17,34,3.20
2014,10,28,17,35,8.10
2014,10,28,17,36,8.10
2014,10,28,17,37,1.60
2014,10,28,17,38,4.80
2014,10,28,17,42,6.40
2014,10,28,17,43,6.40
2014,10,28,17,44,6.40
2014,10,28,17,45,4.80
2014,10,28,17,49,4.80
2014,10,28,18,07,6.40
2014,10,28,18,08,8.10
2014,10,28,18,09,6.40
2014,10,28,18,10,3.20
2014,10,28,18,11,4.80
2014,10,28,18,24,3.20
2014,10,28,18,25,3.20
2014,10,28,18,26,4.80
2014,10,28,18,27,1.60